COSMOS 2378 [-]

Last updated on Wed Jun 28 2023 00:03:31 GMT+0000 (Coordinated Universal Time)

1 26818U 01023A 23178.44585226 .00000076 00000+0 64328-4 0 9997 2 26818 82.9281 306.3041 0032851 188.5508 236.8818 13.74004763105803
UTC large
Height (km)
Speed (km/s)
/
Latitude / Longitude
Inclination (degrees)
Orbital Period (minutes)
Azimuth
Elevation
Range (km)
Doppler Factor

Next 0 passes for location: London (51.5072 / 0.1276)

Sorry there are no passes over London.